Погода в Кабуле

Афганистан     34°30′55″N   69°10′34″E
темп.,
°C
ветер,
м/с
пор.,
м/с
влажн.,
%
обл.,
%
осадки,
мм/ч
давл.,
гПа
погр.,
м
3 марта, ср
ср301:30+7ссз114053 0.0 102022
04:30+5зсз004436 0.0 101922
07:30+7ююз11400 0.0 102022
10:30+11зюз11260 0.0 10181051
13:30+14юз23200 0.0 10152362
16:30+14ю14180 0.0 10152570
19:30+11сз11290 0.0 101823
22:30+8юз113241 0.0 101922
4 марта, чт
чт401:30+7ююз12360 0.0 101922
04:30+5зюз11410 0.0 101922
07:30+7юз11380 0.0 102122
10:30+11юз12270 0.0 1019997
13:30+14юз33200 0.0 10172082
16:30+14ю23170 0.0 10172169
19:30+11с01270 0.0 102023
22:30+9ю22330 0.0 102222
5 марта, пт
пт501:30+6ююз11390 0.0 102222
04:30+5ююз12430 0.0 102222
07:30+6ююз22400 0.0 102448
10:30+11зюз21250 0.0 1021771
13:30+14юз23150 0.0 10191561
16:30+14юз23150 0.0 10171399
19:30+11зсз112331 0.0 102022
22:30+8зюз012632 0.0 101922
6 марта, сб
сб601:30+7юз112865 0.0 101722
04:30+6ссз012982 0.0 101522
07:30+8ю4632100 0.1 1017397
10:30+10зюз2340100 0.1 10161019
13:30+12ссз234095 0.1 10131564
16:30+9сз985098 0.1 1012881
19:30+5ссз337399 1.8 1015543
22:30+4ссз3379100 2.2 1016415
7 марта, вс
вс701:30+4ссз1186100 0.0 1014219
04:30+3сз119194 0.1 1013153
07:30+3юз108696 0.0 1015238
10:30+8ссз116074 0.4 1014478
13:30+12с15310 0.4 10112241
16:30+12ссз423230 0.4 10111285
19:30+9ссз225120 0.1 1014216
22:30+7з115610 0.1 101622